sat.trackr.live / text

‹ back to catalog

STARLINK-3976

NORAD 52673 · 2022-053T

PAYLOAD ACTIVE UNKNOWN

§ Identity

Operator
Country
US
Launch date
2022-05-18
Launch site
AFETR
Launch vehicle
Mass (kg)
RCS (m²)

Purposes: comms

External: N2YO · Heavens-Above · Gunter

§ Orbital elements

Epoch: 2026-09-19T18:34:53.143680Z

Period
93.79 min
Inclination
53.1618°
Eccentricity
0.0001280
Mean motion
15.35403625 rev/d
Perigee alt
458.8 km
Apogee alt
460.6 km
Semi-major
6,837.9 km
B*
2.0620e-5
RAAN
351.5503°
Arg perigee
76.4781°
Mean anomaly
283.6365°
Rev number
24,049

§ Raw data

STARLINK-39761 52673U 22053T   26262.77422620  .00000339  00000+0  20620-4 0  99912 52673  53.1618 351.5503 0001280  76.4781 283.6365 15.35403625240491

JSON: /api/v1/satellites/52673 · /tle

For live sub-satellite position, see the globe view (requires WebGL).

§ Visibility from observer

Set your observer location to see the next 7 days of passes ≥ 10°. The values pass through the URL so the page stays shareable.

No JS? Fill the form by hand. The geolocation button needs JavaScript.